Regional Weather Roundup
Issued by NWS State College, PA

Home | Current Version | Previous Version | Text Only | Print | Product List | Glossary On
Versions: 1 2 3 4 5 6 7 8 9 10 11 12 13 14 15 16 17 18 19 20 21 22 23 24 25 26 27 28 29 30 31 32 33 34 35 36 37 38 39 40 41 42 43 44 45 46 47 48 49 50
000
ASUS41 KCTP 260710
RWRCTP

REGIONAL WEATHER ROUNDUP
NATIONAL WEATHER SERVICE STATE COLLEGE PA
300 AM EDT SUN APR 26 2015

Note: "fair" indicates few or no clouds below 12,000 feet with no
significant weather and/or obstructions to visibility.

* = STATION THAT DOES NOT REPORT PRECIPITATION /E.G. RAIN...SNOW...ETC/
    THUNDER OR FOG.

PAZ002>004-007>009-013>016-020>023-029>032-260800-
WESTERN PENNSYLVANIA

CITY           SKY/WX    TMP DP  RH WIND       PRES   REMARKS
ERIE           CLEAR     36  29  75 NE7       29.77S
MEADVILLE      PTCLDY    35  24  64 N6        29.73S
FRANKLIN*      PTCLDY    37  23  56 NE9       29.72S
NEW CASTLE     FAIR      42  28  58 NE8       29.72S
BEAVER COUNTY  NOT AVBL
BUTLER*        MOCLDY    43  27  52 E12       29.70S
PITTSBURGH INT CLOUDY    46  27  47 NE8       29.68R
PITTSBURGH     CLOUDY    43  34  70 CALM      29.67S
INDIANA*       CLOUDY    43  27  52 E8        29.72S
LATROBE        CLOUDY    43  37  81 CALM      29.69F
WASHINGTON CO* CLOUDY    43  37  81 CALM      29.69R
$$

PAZ004>006-010>012-017>019-024>028-033>037-041-042-045-046-049>053-260800-
CENTRAL PENNSYLVANIA

CITY           SKY/WX    TMP DP  RH WIND       PRES   REMARKS
BRADFORD       CLEAR     29  23  78 N3        29.70F
DUBOIS         PTCLDY    38  25  59 E7        29.69F
CLEARFIELD     PTCLDY    37  25  61 N5        29.71S
JOHNSTOWN      MOCLDY    38  27  64 NE5       29.65S
ALTOONA        MOCLDY    40  30  67 CALM      29.69S
STATE COLLEGE  PTCLDY    38  27  63 CALM      29.71S
WILLIAMSPORT   PTCLDY    38  26  62 CALM      29.73S
SELINSGROVE    PTCLDY    36  30  79 NW6       29.72F
FT INDIANTOWN  MOCLDY    39  27  62 N5        29.69S
CAPITAL CITY   PTCLDY    41  30  65 W5        29.70S
HARRISBURG     MOCLDY    43  31  62 NW12      29.69S
YORK           MOCLDY    39  34  82 W3        29.68F
$$

PAZ038>040-043-044-047-048-054-055-060>062-067>071-260800-
EASTERN PENNSYLVANIA

CITY           SKY/WX    TMP DP  RH WIND       PRES   REMARKS
SCRANTON       CLEAR     34  25  69 CALM      29.69F
MOUNT POCONO   CLEAR     36  24  62 N9        29.66S
ALLENTOWN      PTCLDY    38  27  64 N3        29.69S
QUAKERTOWN*    MOSUNNY   41  27  56 N3        29.68F
READING        PTCLDY    42  28  57 N5        29.68S
LANCASTER      CLEAR     38  29  70 W7        29.68S
COATESVILLE    SUNNY     43  30  61 N6        29.67S
POTTSTOWN      CLEAR     43  27  53 N6        29.68F
BLUE BELL      CLEAR     45  32  61 CALM      29.66F
DOYLESTOWN     PTCLDY    41  26  55 NE3       29.66F
WILLOW GROVE   NOT AVBL
NORTH PHILA    PTCLDY    46  26  45 N8        29.68F
PHILADELPHIA   PTCLDY    48  34  58 W3        29.67F
$$



USA.gov is the U.S. government's official web portal to all federal, state and local government web resources and services.